User: anonymous   Login
Location: Unspecified
(34.4480°N, 0.0000°E)
Time: 23:21:05
(UTC+00:00)
Language:

DOVE 4 - Orbit

View from above orbital plane
View from above orbital plane
View from above satellite
View from above satellite

Ground track
Ground track

The orbit data is extracted from the following two-line orbital elements,

1 39430U 13066Q   20023.83259919  .00000084  00000-0  24754-4 0  9996
2 39430  97.7753 331.2892 0149836 283.6555  74.8008 14.59341572328564
Epoch (UTC): 23 January 2020 19:58:56
Eccentricity: 0.0149836
inclination: 97.7753°
perigee height: 589 km
apogee height: 801 km
right ascension of ascending node: 331.2892°
argument of perigee: 283.6555°
revolutions per day: 14.59341572
mean anomaly at epoch: 74.8008°
orbit number at epoch: 32856

The dashed part of the orbit path shows where the satellite is in the earth's shadow,  

DLR